TimeAKST,TemperatureF,Dew PointF,Humidity,Sea Level PressureIn,VisibilityMPH,Wind Direction,Wind SpeedMPH,Gust SpeedMPH,PrecipitationIn,Events,Conditions,WindDirDegrees,DateUTC
12:16 AM,15.8,-0.4,49,29.14,10.0,East,6.9,-,N/A,,Clear,80,2012-11-18 09:16:00
12:36 AM,15.8,-0.4,49,29.14,10.0,East,6.9,-,N/A,,Clear,100,2012-11-18 09:36:00
12:56 AM,15.8,-0.4,49,29.14,10.0,ENE,10.4,-,N/A,,Clear,70,2012-11-18 09:56:00
1:36 AM,15.8,1.4,53,29.14,10.0,ENE,5.8,-,N/A,,Clear,70,2012-11-18 10:36:00
1:56 AM,15.8,1.4,53,29.14,10.0,NE,9.2,16.1,N/A,,Partly Cloudy,40,2012-11-18 10:56:00
2:16 AM,15.8,1.4,53,29.14,10.0,NE,11.5,-,N/A,,Clear,50,2012-11-18 11:16:00
2:36 AM,15.8,1.4,53,29.15,10.0,NE,9.2,17.3,N/A,,Clear,40,2012-11-18 11:36:00
3:16 AM,15.8,1.4,53,29.15,10.0,East,10.4,17.3,N/A,,Clear,90,2012-11-18 12:16:00
3:56 AM,15.8,-0.4,49,29.15,10.0,ENE,10.4,16.1,N/A,,Clear,70,2012-11-18 12:56:00
4:16 AM,15.8,1.4,53,29.16,10.0,NE,8.1,16.1,N/A,,Partly Cloudy,40,2012-11-18 13:16:00
4:36 AM,15.8,-0.4,49,29.16,10.0,ENE,12.7,18.4,N/A,,Scattered Clouds,60,2012-11-18 13:36:00
4:56 AM,15.8,-0.4,49,29.16,10.0,NE,8.1,-,N/A,,Scattered Clouds,50,2012-11-18 13:56:00
5:16 AM,15.8,-0.4,49,29.16,10.0,NE,8.1,-,N/A,,Overcast,50,2012-11-18 14:16:00
6:16 AM,15.8,-0.4,49,29.18,10.0,East,8.1,17.3,N/A,,Partly Cloudy,90,2012-11-18 15:16:00
6:36 AM,15.8,1.4,53,29.18,10.0,NNE,8.1,-,N/A,,Partly Cloudy,30,2012-11-18 15:36:00
6:56 AM,17.6,1.4,49,29.19,10.0,ENE,8.1,-,N/A,,Mostly Cloudy,70,2012-11-18 15:56:00
7:36 AM,15.8,1.4,53,29.19,10.0,East,5.8,16.1,N/A,,Mostly Cloudy,80,2012-11-18 16:36:00
7:56 AM,15.8,1.4,53,29.20,10.0,NE,5.8,-,N/A,,Mostly Cloudy,50,2012-11-18 16:56:00
8:16 AM,15.8,-0.4,49,29.21,10.0,ENE,6.9,-,N/A,,Mostly Cloudy,70,2012-11-18 17:16:00
8:36 AM,15.8,-0.4,49,29.21,10.0,ENE,9.2,-,N/A,,Mostly Cloudy,60,2012-11-18 17:36:00
9:16 AM,15.8,-0.4,49,29.23,10.0,ENE,8.1,-,N/A,,Partly Cloudy,60,2012-11-18 18:16:00
9:56 AM,15.8,-2.2,45,29.24,10.0,East,10.4,-,N/A,,Partly Cloudy,80,2012-11-18 18:56:00
10:16 AM,15.8,-0.4,49,29.25,10.0,ENE,5.8,-,N/A,,Partly Cloudy,60,2012-11-18 19:16:00
10:36 AM,15.8,-0.4,49,29.26,10.0,East,6.9,-,N/A,,Partly Cloudy,90,2012-11-18 19:36:00
11:16 AM,15.8,-0.4,49,29.27,10.0,East,10.4,-,N/A,,Partly Cloudy,80,2012-11-18 20:16:00
11:56 AM,15.8,-0.4,49,29.28,10.0,ENE,8.1,16.1,N/A,,Partly Cloudy,70,2012-11-18 20:56:00
12:36 PM,15.8,-2.2,45,29.28,10.0,East,11.5,16.1,N/A,,Partly Cloudy,100,2012-11-18 21:36:00
12:56 PM,15.8,-0.4,49,29.28,10.0,ENE,10.4,-,N/A,,Scattered Clouds,70,2012-11-18 21:56:00
1:56 PM,17.6,-0.4,45,29.29,10.0,ENE,6.9,-,N/A,,Mostly Cloudy,70,2012-11-18 22:56:00
2:16 PM,17.6,-0.4,45,29.29,10.0,ENE,6.9,-,N/A,,Mostly Cloudy,60,2012-11-18 23:16:00
2:36 PM,17.6,1.4,49,29.29,10.0,ENE,8.1,17.3,N/A,,Mostly Cloudy,70,2012-11-18 23:36:00
2:56 PM,17.6,-0.4,45,29.29,10.0,NE,10.4,-,N/A,,Mostly Cloudy,50,2012-11-18 23:56:00
3:56 PM,17.6,-0.4,45,29.32,10.0,East,6.9,16.1,N/A,,Mostly Cloudy,90,2012-11-19 00:56:00
4:36 PM,17.6,-0.4,45,29.32,10.0,ENE,6.9,-,N/A,,Mostly Cloudy,60,2012-11-19 01:36:00
5:16 PM,17.6,-0.4,45,29.33,10.0,North,6.9,-,N/A,,Scattered Clouds,10,2012-11-19 02:16:00
5:36 PM,17.6,-0.4,45,29.33,10.0,SE,3.5,-,N/A,,Scattered Clouds,140,2012-11-19 02:36:00
5:56 PM,17.6,-0.4,45,29.33,10.0,NE,9.2,-,N/A,,Mostly Cloudy,40,2012-11-19 02:56:00
6:36 PM,17.6,-0.4,45,29.34,10.0,ENE,4.6,-,N/A,,Mostly Cloudy,70,2012-11-19 03:36:00
6:56 PM,15.8,-0.4,49,29.34,10.0,ENE,10.4,-,N/A,,Scattered Clouds,70,2012-11-19 03:56:00
7:16 PM,15.8,-0.4,49,29.34,10.0,NE,6.9,-,N/A,,Scattered Clouds,40,2012-11-19 04:16:00
7:36 PM,15.8,-0.4,49,29.34,10.0,Calm,Calm,-,N/A,,Scattered Clouds,0,2012-11-19 04:36:00
7:56 PM,15.8,-0.4,49,29.34,10.0,ENE,9.2,-,N/A,,Scattered Clouds,70,2012-11-19 04:56:00
8:36 PM,15.8,-2.2,45,29.34,10.0,NE,8.1,-,N/A,,Scattered Clouds,50,2012-11-19 05:36:00
8:56 PM,15.8,-0.4,49,29.35,10.0,NE,6.9,16.1,N/A,,Scattered Clouds,50,2012-11-19 05:56:00
9:16 PM,15.8,-2.2,45,29.35,10.0,East,12.7,18.4,N/A,,Scattered Clouds,80,2012-11-19 06:16:00
9:36 PM,15.8,-0.4,49,29.35,10.0,NE,8.1,-,N/A,,Scattered Clouds,40,2012-11-19 06:36:00
9:56 PM,15.8,-0.4,49,29.36,10.0,East,9.2,-,N/A,,Scattered Clouds,80,2012-11-19 06:56:00
10:16 PM,15.8,1.4,53,29.35,10.0,NNE,10.4,-,N/A,,Clear,30,2012-11-19 07:16:00
10:36 PM,15.8,-0.4,49,29.36,10.0,East,6.9,-,N/A,,Clear,100,2012-11-19 07:36:00
11:16 PM,15.8,-2.2,45,29.36,10.0,NE,3.5,-,N/A,,Clear,40,2012-11-19 08:16:00
11:56 PM,15.8,-2.2,45,29.36,10.0,ENE,5.8,-,N/A,,Partly Cloudy,60,2012-11-19 08:56:00